Date String (YYYY-MM-DD hh:mm:ss) UTC,Instrument flags,Ambient pressure (hPa),Sample flow (lpm),Bypass flow (lpm),Sample temperature (°C),Ambient temperature (°C),ASC tube jacket temperature (°C),LED temperature (°C),Box temperature (°C),Sample RH (%),Span deviation,Mass concentration (μg/m³),Mass concentration (μg/m³),Mass concentration (μg/m³)
DateTimeUTC,F1_M11,P_M11,Q1_M11,Q2_M11,T1_M11,T2_M11,T3_M11,T4_M11,T5_M11,U1_M11,ZSPAN_M11,X0_M11,X2_M11,X1_M11
2022-01-31 17:00:00,,0817.6,4.98,0.00,22.3,21.6,00.0,31.4,24.1,02.8,0000.0,0002.31,0000.48,0000.25
2022-01-31 17:01:00,,0817.7,5.00,0.00,22.4,22.4,00.0,31.5,24.3,02.7,0000.0,0002.26,0000.46,0000.25
2022-01-31 17:02:00,,0817.6,5.01,0.00,22.6,23.2,00.0,31.5,24.6,03.4,0000.0,0001.87,0000.43,0000.24
2022-01-31 17:03:00,,0817.5,5.01,0.00,22.7,23.1,00.0,31.5,24.6,03.3,0000.0,0001.66,0000.44,0000.24
2022-01-31 17:04:00,,0817.6,5.00,0.00,22.7,22.9,00.0,31.5,24.6,02.9,0000.0,0001.65,0000.43,0000.24
2022-01-31 17:05:00,,0817.7,5.01,0.00,22.7,22.7,00.0,31.5,24.5,02.7,0000.0,0001.63,0000.43,0000.24
2022-01-31 17:06:00,,0817.7,5.01,0.00,22.7,22.5,00.0,31.6,24.5,03.2,0000.0,0001.45,0000.40,0000.24
2022-01-31 17:07:00,,0817.8,5.00,0.00,22.7,22.4,00.0,31.6,24.4,03.3,0000.0,0001.43,0000.39,0000.25
2022-01-31 17:08:00,,0817.8,5.00,0.00,22.7,22.3,00.0,31.6,24.4,03.3,0000.0,0001.48,0000.41,0000.25
2022-01-31 17:09:00,,0817.8,5.01,0.00,22.6,22.2,00.0,31.6,24.4,03.4,0000.0,0001.51,0000.42,0000.25
2022-01-31 17:10:00,,0817.7,4.99,0.00,22.6,22.2,00.0,31.6,24.4,03.2,0000.0,0001.52,0000.43,0000.25
2022-01-31 17:11:00,,0817.6,5.01,0.00,22.6,22.1,00.0,31.6,24.4,03.5,0000.0,0001.49,0000.42,0000.25
2022-01-31 17:12:00,,0817.3,4.99,0.00,22.6,22.1,00.0,31.6,24.4,03.5,0000.0,0000.86,0000.42,0000.26
2022-01-31 17:13:00,,0817.2,5.01,0.00,22.6,22.0,00.0,31.6,24.4,03.1,0000.0,0001.42,0000.41,0000.26
2022-01-31 17:14:00,,0817.2,4.99,0.00,22.6,21.9,00.0,31.6,24.4,02.8,0000.0,0001.87,0000.40,0000.27
2022-01-31 17:15:00,,0817.4,4.99,0.00,22.6,21.8,00.0,31.6,24.3,02.3,0000.0,0001.93,0000.43,0000.28
2022-01-31 17:16:00,,0817.4,5.01,0.00,22.6,21.8,00.0,31.6,24.3,02.7,0000.0,0001.91,0000.42,0000.27
2022-01-31 17:17:00,,0817.5,5.00,0.00,22.6,21.8,00.0,31.6,24.3,03.2,0000.0,0001.90,0000.42,0000.27
2022-01-31 17:18:00,,0817.5,5.00,0.00,22.6,21.9,00.0,31.6,24.3,03.5,0000.0,0001.88,0000.41,0000.26
2022-01-31 17:19:00,,0817.4,5.01,0.00,22.6,21.8,00.0,31.6,24.3,03.4,0000.0,0001.84,0000.39,0000.26
2022-01-31 17:20:00,,0817.4,4.98,0.00,22.6,21.8,00.0,31.6,24.3,03.1,0000.0,0001.85,0000.39,0000.27
2022-01-31 17:21:00,,0817.4,5.01,0.00,22.6,21.8,00.0,31.6,24.3,03.4,0000.0,0001.88,0000.40,0000.27
2022-01-31 17:22:00,,0817.4,4.98,0.00,22.6,21.7,00.0,31.6,24.2,03.3,0000.0,0001.86,0000.39,0000.27
2022-01-31 17:23:00,,0817.3,5.02,0.00,22.6,21.7,00.0,31.6,24.2,03.0,0000.0,0001.85,0000.39,0000.27
2022-01-31 17:24:00,,0817.1,4.99,0.00,22.6,21.7,00.0,31.5,24.1,03.1,0000.0,0000.95,0000.37,0000.26
2022-01-31 17:25:00,,0817.1,5.01,0.00,22.6,21.7,00.0,31.6,24.2,02.8,0000.0,0000.62,0000.37,0000.26
2022-01-31 17:26:00,,0817.1,5.00,0.00,22.6,21.8,00.0,31.6,24.3,03.4,0000.0,0000.58,0000.36,0000.26
2022-01-31 17:27:00,,0817.1,4.99,0.00,22.6,21.8,00.0,31.6,24.3,03.1,0000.0,0000.58,0000.36,0000.27
2022-01-31 17:28:00,,0816.9,5.00,0.00,22.6,21.8,00.0,31.6,24.2,03.6,0000.0,0000.58,0000.37,0000.28
2022-01-31 17:29:00,,0817.0,5.01,0.00,22.6,21.8,00.0,31.6,24.3,02.9,0000.0,0000.57,0000.37,0000.28
2022-01-31 17:30:00,,0816.8,5.00,0.00,22.6,21.8,00.0,31.6,24.3,03.0,0000.0,0000.57,0000.37,0000.28
2022-01-31 17:31:00,,0816.7,5.01,0.00,22.6,21.8,00.0,31.6,24.3,02.9,0000.0,0000.92,0000.39,0000.28
2022-01-31 17:32:00,,0816.8,5.00,0.00,22.6,21.8,00.0,31.6,24.3,03.2,0000.0,0002.44,0000.42,0000.28
2022-01-31 17:33:00,,0816.7,5.00,0.00,22.6,21.8,00.0,31.6,24.3,03.0,0000.0,0002.46,0000.43,0000.28
2022-01-31 17:34:00,,0816.7,4.99,0.00,22.6,21.8,00.0,31.6,24.3,03.3,0000.0,0003.47,0000.43,0000.28
2022-01-31 17:35:00,,0816.7,5.02,0.00,22.6,21.8,00.0,31.6,24.2,03.4,0000.0,0003.51,0000.43,0000.28
2022-01-31 17:36:00,,0816.7,4.99,0.00,22.6,21.8,00.0,31.6,24.3,03.1,0000.0,0003.51,0000.44,0000.28
2022-01-31 17:37:00,,0816.6,5.00,0.00,22.6,21.8,00.0,31.6,24.3,02.7,0000.0,0003.55,0000.45,0000.28
2022-01-31 17:38:00,,0816.7,5.00,0.00,22.6,21.8,00.0,31.6,24.3,02.7,0000.0,0003.54,0000.45,0000.27
2022-01-31 17:39:00,,0816.7,4.99,0.00,22.6,21.8,00.0,31.6,24.3,03.3,0000.0,0003.56,0000.45,0000.27
2022-01-31 17:40:00,,0816.7,5.01,0.00,22.6,21.8,00.0,31.6,24.3,03.3,0000.0,0003.57,0000.46,0000.27
2022-01-31 17:41:00,,0816.7,4.99,0.00,22.6,21.8,00.0,31.6,24.3,03.3,0000.0,0003.58,0000.46,0000.26
2022-01-31 17:42:00,,0816.6,5.01,0.00,22.6,21.8,00.0,31.6,24.3,02.9,0000.0,0003.62,0000.47,0000.27
2022-01-31 17:43:00,,0816.6,5.00,0.00,22.6,21.8,00.0,31.6,24.3,02.5,0000.0,0001.95,0000.42,0000.26
2022-01-31 17:44:00,,0816.6,4.98,0.00,22.6,21.8,00.0,31.6,24.3,02.8,0000.0,0001.71,0000.41,0000.26
2022-01-31 17:45:00,,0816.7,5.01,0.00,22.6,21.8,00.0,31.6,24.3,03.1,0000.0,0001.05,0000.43,0000.26
2022-01-31 17:46:00,,0816.8,5.00,0.00,22.6,21.7,00.0,31.6,24.2,03.1,0000.0,0000.81,0000.42,0000.25
2022-01-31 17:47:00,,0816.5,4.98,0.00,22.6,21.7,00.0,31.6,24.2,02.5,0000.0,0001.07,0000.43,0000.26
2022-01-31 17:48:00,,0816.5,5.02,0.00,22.6,21.7,00.0,31.6,24.2,02.4,0000.0,0001.14,0000.41,0000.25
2022-01-31 17:49:00,,0816.4,4.99,0.00,22.5,21.7,00.0,31.6,24.1,02.6,0000.0,0001.21,0000.43,0000.26
2022-01-31 17:50:00,,0816.4,5.00,0.00,22.5,21.7,00.0,31.5,24.1,02.7,0000.0,0001.24,0000.44,0000.25
2022-01-31 17:51:00,,0816.4,5.01,0.00,22.5,21.7,00.0,31.5,24.1,02.7,0000.0,0001.25,0000.44,0000.25
2022-01-31 17:52:00,,0816.3,4.99,0.00,22.5,21.7,00.0,31.5,24.2,02.6,0000.0,0001.27,0000.43,0000.25
2022-01-31 17:53:00,,0816.1,5.02,0.00,22.5,21.7,00.0,31.5,24.2,02.3,0000.0,0001.34,0000.43,0000.25
2022-01-31 17:54:00,,0816.1,5.00,0.00,22.5,21.7,00.0,31.5,24.1,02.7,0000.0,0001.37,0000.44,0000.25
2022-01-31 17:55:00,,0816.2,4.99,0.00,22.5,21.7,00.0,31.5,24.1,03.0,0000.0,0001.36,0000.43,0000.25
2022-01-31 17:56:00,,0816.2,4.99,0.00,22.5,21.7,00.0,31.5,24.1,03.3,0000.0,0001.32,0000.41,0000.25
2022-01-31 17:57:00,,0816.0,5.01,0.00,22.5,21.8,00.0,31.5,24.2,03.3,0000.0,0001.23,0000.41,0000.25
2022-01-31 17:58:00,,0816.0,4.99,0.00,22.5,21.8,00.0,31.5,24.2,03.1,0000.0,0000.96,0000.40,0000.25
2022-01-31 17:59:00,,0815.9,5.01,0.00,22.5,21.7,00.0,31.5,24.2,02.7,0000.0,0000.82,0000.40,0000.25
